Weather History for Watsonville, CA

Change the Weather History Date:

Friday, July 5, 2013

  Actual Average Record
Temperature  
Mean Temperature 62 °F 63 °F  
Max Temperature 69 °F 74 °F 77 °F (2011)
Min Temperature 55 °F 53 °F 46 °F (2003)
Degree Days  
Heating Degree Days 3    
Month to date heating degree days 3  
Since 1 June heating degree days 105  
Since 1 July heating degree days 3  
Cooling Degree Days 0    
Month to date cooling degree days 10  
Year to date cooling degree days 40  
Since 1 June cooling degree days 34  
Growing Degree Days 10 (Base 50)    
Moisture  
Dew Point 52 °F    
Average Humidity 76    
Maximum Humidity 93    
Minimum Humidity 58    
Precipitation  
Precipitation 0.00 in - 0.04 in (2000)
Month to date precipitation 0.00  
Year to date precipitation 2.39  
Since 1 July precipitation 0.00  
Sea Level Pressure  
Sea Level Pressure 29.83 in    
Wind  
Wind Speed 6 mph (SE)    
Max Wind Speed 31 mph    
Max Gust Speed 113 mph    
Visibility 8 miles    
Events      
T = Trace of Precipitation, MM = Missing Value Source: NWS Daily Summary

Daily Weather History Graph

Daily Weather History Graph

Search for Another Location

Airport:

Trip Planner

Search our weather history database for the weather conditions in past years. The results will help you decide how hot, cold, wet, or windy it might be!

Date:

Astronomy

Jul. 05, 2013 Rise Set
Actual Time 5:53 AM PDT 8:29 PM PDT
Civil Twilight 5:23 AM PDT 9:00 PM PDT
Nautical Twilight 4:45 AM PDT 9:38 PM PDT
Astronomical Twilight 4:02 AM PDT 10:20 PM PDT
Moon 3:55 AM PDT (7/5) 6:30 PM PDT (7/5)
Length of Visible Light 15h 37m
Length of Day
14h 36m
Waning Crescent, 6% of the Moon is Illuminated
Jul 5
Waning Crescent
Jul 8
New
Jul 15
First Quarter
Jul 22
Full
Jul 29
Last Quarter

Hourly Weather History & Observations

Time (PDT) Temp. Dew Point Humidity Pressure Visibility Wind Dir Wind Speed Gust Speed Precip Events Conditions
12:36 AM 57.2 °F 53.6 °F 88% 29.81 in 6.0 mi Calm Calm - N/A   Scattered Clouds
12:53 AM 57.9 °F 54.0 °F 87% 29.80 in 6.0 mi Calm Calm - N/A   Clear
1:53 AM 57.0 °F 54.0 °F 89% 29.80 in 6.0 mi Calm Calm - N/A   Clear
2:53 AM 55.9 °F 52.0 °F 87% 29.81 in 6.0 mi Calm Calm - N/A   Clear
3:41 AM 55.4 °F 51.8 °F 88% 29.80 in 6.0 mi NE 3.5 mph - N/A   Partly Cloudy
3:53 AM 55.9 °F 53.1 °F 90% 29.81 in 4.0 mi East 3.5 mph - N/A   Mostly Cloudy
3:59 AM 55.4 °F 53.6 °F 94% 29.80 in 2.5 mi ENE 3.5 mph - N/A   Mostly Cloudy
4:09 AM 55.4 °F 53.6 °F 94% 29.80 in 4.0 mi NE 3.5 mph - N/A   Overcast
4:53 AM 55.9 °F 54.0 °F 93% 29.81 in 5.0 mi ENE 5.8 mph - N/A   Overcast
5:21 AM 57.2 °F 53.6 °F 88% 29.81 in 8.0 mi NE 5.8 mph - N/A   Overcast
5:53 AM 57.0 °F 53.1 °F 87% 29.82 in 8.0 mi NE 4.6 mph - N/A   Overcast
6:53 AM 57.0 °F 52.0 °F 83% 29.83 in 6.0 mi NNE 4.6 mph - N/A   Haze
7:53 AM 57.9 °F 53.1 °F 84% 29.85 in 6.0 mi Calm Calm - N/A   Haze
8:53 AM 59.0 °F 53.1 °F 81% 29.86 in 7.0 mi Calm Calm - N/A   Overcast
9:14 AM 60.8 °F 53.6 °F 77% 29.86 in 7.0 mi Calm Calm - N/A   Overcast
9:53 AM 60.1 °F 52.0 °F 75% 29.86 in 9.0 mi SE 5.8 mph - N/A   Overcast
10:53 AM 62.1 °F 52.0 °F 70% 29.86 in 10.0 mi SE 8.1 mph - N/A   Overcast
11:53 AM 63.0 °F 53.1 °F 70% 29.86 in 10.0 mi SSE 6.9 mph - N/A   Overcast
12:53 PM 66.0 °F 52.0 °F 60% 29.86 in 10.0 mi SSE 6.9 mph - N/A   Overcast
1:36 PM 66.2 °F 51.8 °F 60% 29.85 in 10.0 mi SSE 9.2 mph - N/A   Scattered Clouds
1:53 PM 66.0 °F 52.0 °F 60% 29.84 in 10.0 mi SE 8.1 mph - N/A   Clear
2:53 PM 66.9 °F 52.0 °F 59% 29.83 in 10.0 mi South 10.4 mph - N/A   Clear
3:53 PM 66.9 °F 52.0 °F 59% 29.82 in 10.0 mi South 8.1 mph - N/A   Clear
4:53 PM 64.0 °F 52.0 °F 65% 29.81 in 10.0 mi South 8.1 mph - N/A   Clear
5:53 PM 62.1 °F 52.0 °F 70% 29.81 in 9.0 mi South 10.4 mph - N/A   Clear
6:53 PM 60.1 °F 51.1 °F 72% 29.81 in 8.0 mi South 9.2 mph - N/A   Clear
7:53 PM 57.0 °F 51.1 °F 81% 29.82 in 8.0 mi South 8.1 mph - N/A   Mostly Cloudy
8:21 PM 55.4 °F 51.8 °F 88% 29.82 in 8.0 mi SE 5.8 mph - N/A   Scattered Clouds
8:30 PM 55.4 °F 51.8 °F 88% 29.82 in 8.0 mi SE 5.8 mph - N/A   Mostly Cloudy
8:40 PM 55.4 °F 51.8 °F 88% 29.82 in 8.0 mi SE 6.9 mph - N/A   Mostly Cloudy
8:53 PM 55.9 °F 51.1 °F 84% 29.83 in 9.0 mi SE 6.9 mph - N/A   Overcast
9:22 PM 55.4 °F 51.8 °F 88% 29.83 in 9.0 mi North - - N/A   Overcast
9:30 PM 55.4 °F 51.8 °F 88% 29.83 in 9.0 mi SSE 8.1 mph - N/A   Overcast
9:46 PM 55.4 °F 51.8 °F 88% 29.83 in 9.0 mi SE 6.9 mph - N/A   Overcast
9:53 PM 55.9 °F 51.1 °F 84% 29.84 in 9.0 mi SE 8.1 mph - N/A   Overcast
10:53 PM 57.0 °F 51.1 °F 81% 29.84 in 10.0 mi East 6.9 mph - N/A   Overcast
11:53 PM 57.0 °F 51.1 °F 81% 29.84 in 10.0 mi ESE 5.8 mph - N/A   Overcast